Flag for Spain Weather past 2 weeks in Mahón, Menorca, Spain

Now
85 °F

Overcast.


Feels Like: 93 °F
Forecast: 71 / 85 °F
Wind: 9 mph from East

Location: Menorca / Mahon

Current Time: Sep 20, 2014 at 6:43:09 PM

Latest Report: Sep 20, 2014 at 3:00 PM


Visibility: 9 mi

Pressure: 29.99 "Hg

Humidity: 67%

Dew point: 73 °F

Location of MahónLocation

Historic Weather in Mahón — Graph

°F

Mahón temperature yesterday

Maximum temperature yesterday: 85 °F (at 2:00 PM)
Minimum temperature yesterday: 74 °F (at 1:00 AM)
Average temperature yesterday: 79 °F

Past Weeks' High & Low Weather Summary

 TemperatureHumidityPressure
High88 °F (Sep 10, 3:00 PM)96% (Sep 12, 8:00 AM)30.03 "Hg (Sep 12, 8:00 AM)
Low67 °F (Sep 13, 6:00 AM)34% (Sep 10, 3:00 PM)29.75 "Hg (Sep 17, 5:00 PM)
Average78 °F76%29.91 "Hg
* Reported Sep 5 3:00 PM — Sep 20 3:00 PM, Mahón, Weather by CustomWeather, © 2014

Note: Actual official high and low records may vary slightly from our data, if they occured in-between our weather recording intervals... More about our weather records

Advertising

Mahón weather history for previous 24 hours

 ConditionsComfort  
Time TempWeatherWind HumidityBarometerVisibility
3:00 PM
Sep 20
85 °FOvercast.9 mph67%29.99 "Hg9 mi
2:00 PM85 °FOvercast.9 mph69%30.00 "Hg10 mi
1:00 PM83 °FWarm.10 mph73%30.01 "HgN/A
12:00 PM83 °FWarm.9 mph72%30.00 "HgN/A
11:00 AM84 °FOvercast.7 mph68%30.01 "Hg11 mi
10:00 AM82 °FWarm.9 mph79%30.00 "HgN/A
9:00 AM78 °FOvercast.7 mph86%29.99 "Hg12 mi
8:00 AM74 °FOvercast.3 mph90%30.00 "Hg12 mi
7:00 AM74 °FMild.3 mph89%29.98 "HgN/A
6:00 AM75 °FMild.5 mph89%29.97 "HgN/A
5:00 AM75 °FPassing clouds.3 mph89%29.96 "Hg9 mi
4:00 AM75 °FMild.7 mph89%29.96 "HgN/A
3:00 AM75 °FMild.6 mph89%29.97 "HgN/A
2:00 AM74 °FPassing clouds.7 mph89%29.97 "Hg9 mi
1:00 AM74 °FMild.2 mph85%29.97 "HgN/A
12:00 AM76 °FMild.6 mph83%29.98 "HgN/A
11:00 PM
Sep 19
78 °FOvercast.12 mph83%29.99 "Hg7 mi
10:00 PM78 °FWarm.10 mph82%30.01 "HgN/A
9:00 PM79 °FWarm.5 mph75%29.97 "HgN/A
8:00 PM79 °FOvercast.7 mph73%29.97 "Hg11 mi
7:00 PM80 °FWarm.7 mph73%29.96 "HgN/A
6:00 PM81 °FWarm.10 mph74%29.93 "HgN/A
Weather by CustomWeather, © 2014

See weather overviewHow to use our weather pages